International Virtual Aviation Organisation

Russian Federation and Kazakhstan MCD

 

Карточка аэропорта UOOO

Внимание!
Информация на этой странице в стадии наполнения.
Если вы не увидели какой-то информации, или заметили неточность - пожалуйста сообщите нам!
Спасибо!
Команда RU-STAFF
Название аэропортаАлыкель
Название аэропорта (англ.)Alykel
Превышение574 ft. (175 m.)
Координаты69°19.02', 87°19.02'
Высота перехода1200m
Эшелон переходаQFE>744:FL60;744>QFE>717:FL70;717>QFE:FL80
Коды ответчика5401-5427
Зона ОрВДКрасноярск РПИ (UNKL)
Данные METARUOOO 060900Z 05004MPS 9000 NSC M25/M28 Q0997 R01/32//55 NOSIG RMK QFE734/0979
Проноз погоды (TAF)UOOO 060746Z 0609/0709 05003G08MPS 6000 SCT030 BECMG 0612/0614 -SN BKN017 TEMPO 0614/0701 3200 -SN BECMG 0701/0703 BKN012 TEMPO 0706/0709 35003G08MPS
NOTAMshow/hide NOTAM
AWOS   TABLE

Информация о ВПП

ВПП Длина ВПП (м.) Покрытие Курс ВПП Частота ILS
013430Бетон13109.5
193430Бетон193110.3

Диспетчерские позиции

Позывной Наименование органа УВД Частота
UOOO_GNDНорильск - Руление121.700
UOOO_TWRНорильск - Старт118.300
UOOO_APPНорильск - Круг120.400



Спутниковое изображение